Weather in Takhtoyamsk

Russia / Magadan District     60°11′52″N   154°40′47″E
temp.,
°C
wind,
m/s
gust,
m/s
humid.,
%
clouds,
%
prec.,
mm/h
press.,
hPa
HPBL,
m
26 january, wed
wed2623:00−29nw228221 0.0 101616
02:00−29nw228354 0.0 101615
05:00−29nw228357 0.0 101715
08:00−28nw228287 0.0 101822
11:00−23nw2278100 0.0 101860
14:00−20nw117398 0.0 1018113
17:00−23nnw218397 0.0 101811
20:00−22nw228494 0.0 101937
27 january, thu
thu2723:00−21nw2284100 0.0 101941
02:00−21nw228488 0.0 101841
05:00−22nw3381100 0.0 101850
08:00−24nw338196 0.0 101840
11:00−22nw347891 0.0 101798
14:00−19nw4675100 0.0 1014168
17:00−18nw4992100 0.1 1012233
20:00−17nw4995100 1.3 1010198
28 january, fri
fri2823:00−14nnw51194100 3.3 1007261
02:00−7nne122187100 1.8 10041049
05:00−6ne172586100 3.0 10041177
08:00−6ne182787100 2.1 10051116
11:00−7ne172589100 4.2 10071195
14:00−7ne162488100 1.4 10071132
17:00−6ne162371100 1.8 10061230
20:00−7ne142364100 0.0 10051073
29 january, sat
sat2923:00−8ne142485100 0.8 10031197
02:00−6ne152483100 1.1 10021230
05:00−6ne152383100 1.9 10021109
08:00−6ne142283100 0.4 10031017
11:00−6ne132087100 1.4 1005846
14:00−5ne13208397 0.4 1006779
17:00−5ne111884100 0.5 1009691
20:00−5ne101682100 0.0 1011610
30 january, sun
sun3023:00−4ne91581100 0.1 1013671
02:00−3ne81583100 0.0 1013561
05:00−4ne111885100 0.4 1015676
08:00−4ne101777100 0.2 1017711
11:00−5ne8167894 0.2 1018593
14:00−4nne71377100 0.0 1017600
17:00−10n338760 0.0 101620
20:00−13n22827 0.0 101521